Regional Weather Roundup
Issued by NWS

Home | Current Version | Previous Version | Graphics & Text | Print | Product List | Glossary On
Versions: 1 2 3 4 5 6 7 8 9 10 11 12 13 14 15 16 17 18 19 20 21 22 23 24 25 26 27 28 29 30 31 32 33 34 35 36 37 38 39 40 41 42 43 44 45 46 47 48 49 50
000
ASUS43 KLMK 220002
RWRKY
KENTUCKY REGIONAL WEATHER ROUNDUP
NATIONAL WEATHER SERVICE LOUISVILLE KY
800 PM EDT THU AUG 21 2014

NOTE "FAIR" INDICATES FEW OR NO CLOUDS BELOW 12,000 FEET
WITH NO SIGNIFICANT WEATHER AND/OR OBSTRUCTIONS TO VISIBILITY.

KYZ001>023-026-027-061>063-070>075-220100-
WESTERN AND SOUTH CENTRAL KENTUCKY

CITY           SKY/WX    TMP DP  RH WIND       PRES   REMARKS
PADUCAH        PTCLDY    88  74  63 SW7       29.98F HX  96
HENDERSON      MOCLDY    84  73  70 SW3       29.96F HX  91
OWENSBORO      CLEAR     85  74  69 S7        29.98F HX  92
HOPKINSVILLE   NOT AVBL
BOWLING GREEN  PTCLDY    89  70  53 S9        30.02F HX  94
GLASGOW        CLEAR     86  72  62 CALM      30.04S HX  92
$$

KYZ024-025-028>034-038-045-046-053-220100-
NORTH CENTRAL KENTUCKY

CITY           SKY/WX    TMP DP  RH WIND       PRES   REMARKS
LOUISVILLE/SDF PTCLDY    86  72  62 SW7       29.98F HX  92
LOUISVILLE/LOU CLEAR     86  72  62 S6        29.99F HX  92
FORT KNOX      CLEAR     83  74  74 S3        30.00F
$$

KYZ035>037-039>044-047>052-055>060-089>105-220100-
NORTHEAST KENTUCKY

CITY           SKY/WX    TMP DP  RH WIND       PRES   REMARKS
LEXINGTON      MOCLDY    84  72  67 S6        30.03F
COVINGTON      MOCLDY    80  74  81 S5        30.01F
FRANKFORT      PTCLDY    83  73  72 SW7       30.01F
$$

KYZ054-064>069-076>088-106>120-220100-
SOUTHEAST KENTUCKY

CITY           SKY/WX    TMP DP  RH WIND       PRES   REMARKS
JACKSON        MOCLDY    71  69  93 CALM      30.09F FOG
LONDON         MOCLDY    84  71  65 SW5       30.09F
SOMERSET       MOCLDY    82  70  65 SW3       30.08S
MIDDLESBORO    PTCLDY    82  73  74 CALM      30.11R
MONTICELLO     PTCLDY    84  76  77 CALM      30.09S HX  92
$$




USA.gov is the U.S. government's official web portal to all federal, state and local government web resources and services.